Flag for U.S.A. Weather past 2 weeks in San Jose, California, U.S.A.

Now
64 °F

Passing clouds.


Feels Like: 64 °F
Forecast: 63 / 78 °F
Wind: 5 mph from North

Location: San Jose International Airport

Current Time: Jul 31, 2015 at 11:55:45 PM

Latest Report: Jul 31, 2015 at 10:53 PM


Visibility: 10 mi

Pressure: 30.00 "Hg

Humidity: 81%

Dew point: 58 °F

Location of San JoseLocation

Historic Weather in San Jose — Graph

°F

San Jose temperature yesterday

Maximum temperature yesterday: 81 °F (at 3:53 PM)
Minimum temperature yesterday: 63 °F (at 3:53 AM)
Average temperature yesterday: 70 °F

Past Weeks' High & Low Weather Summary

 TemperatureHumidityPressure
High93 °F (Jul 28, 2:53 PM)88% (Jul 17, 6:03 AM)30.12 "Hg (Jul 17, 6:03 AM)
Low55 °F (Jul 24, 5:53 AM)19% (Jul 28, 2:53 PM)29.76 "Hg (Jul 17, 5:53 PM)
Average70 °F63%29.95 "Hg
* Reported Jul 16 9:53 PM — Jul 31 9:53 PM, San Jose, Weather by CustomWeather, © 2015

Note: Actual official high and low records may vary slightly from our data, if they occured in-between our weather recording intervals... More about our weather records

Advertising

San Jose weather history for previous 24 hours

 ConditionsComfort  
Time TempWeatherWind HumidityBarometerVisibility
9:53 PM
Fri, Jul 31
65 °FPassing clouds.6 mph78%30.00 "Hg10 mi
8:53 PM65 °FPassing clouds.13 mph78%29.99 "Hg10 mi
7:53 PM68 °FPassing clouds.13 mph73%29.97 "Hg10 mi
6:53 PM72 °FPassing clouds.13 mph64%29.95 "Hg10 mi
5:53 PM75 °FPassing clouds.13 mph58%29.95 "Hg10 mi
4:53 PM76 °FPassing clouds.17 mph56%29.96 "Hg10 mi
3:53 PM77 °FScattered clouds.15 mph52%29.96 "Hg10 mi
2:53 PM78 °FScattered clouds.12 mph56%29.98 "Hg10 mi
1:53 PM77 °FScattered clouds.9 mph58%29.98 "Hg10 mi
12:53 PM72 °FLight rain. Broken clouds.8 mph68%30.00 "Hg10 mi
11:53 AM74 °FScattered clouds.3 mph62%30.00 "Hg10 mi
10:53 AM71 °FBroken clouds.3 mph68%30.01 "Hg10 mi
9:53 AM66 °FBroken clouds.7 mph78%30.02 "Hg9 mi
8:53 AM67 °FBroken clouds.6 mph79%30.02 "Hg8 mi
7:53 AM65 °FBroken clouds.No wind85%30.02 "Hg10 mi
6:53 AM65 °FMostly cloudy.No wind85%30.01 "Hg10 mi
5:53 AM64 °FMostly cloudy.3 mph84%30.00 "Hg10 mi
4:53 AM64 °FOvercast.6 mph84%30.00 "Hg10 mi
3:53 AM64 °FPassing clouds.5 mph84%29.99 "Hg10 mi
2:53 AM64 °FClear.5 mph84%29.99 "Hg10 mi
1:53 AM64 °FClear.3 mph84%30.00 "Hg10 mi
12:53 AM64 °FClear.5 mph84%30.01 "Hg10 mi
11:53 PM
Thu, Jul 30
65 °FPassing clouds.7 mph85%30.01 "Hg10 mi
Weather by CustomWeather, © 2015

See weather overviewHow to use our weather pages